Regional Weather Roundup
Issued by NWS

Home | Current Version | Previous Version | Text Only | Print | Product List | Glossary Off
Versions: 1 2 3 4 5 6 7 8 9 10 11 12 13 14 15 16 17 18 19 20 21 22 23 24 25 26 27 28

000
ASUS45 KSLC 180010
RWRUT

UTAH REGIONAL WEATHER ROUNDUP
NATIONAL WEATHER SERVICE SALT LAKE CITY UT
600 PM MDT THU APR 17 2014

UTZ001>011-023>025-180100-

NORTHERN UTAH

CITY           SKY/WX    TMP DP  RH WIND       PRES   REMARKS
HILL AFB       SUNNY     67  23  18 S8        29.91F
LOGAN          SUNNY     66  28  24 S9        29.91F
OGDEN          SUNNY     68  25  19 S7        29.89F
PROVO AIRPORT  SUNNY     70  30  23 CALM      29.91F
SALT LAKE CITY MOSUNNY   71  26  18 S17G23    29.87F
VERNAL         SUNNY     63  21  20 S7        29.97F
WENDOVER       SUNNY     72  28  20 E12       29.84F
HEBER CITY     SUNNY     66  27  22 SW10      29.94F
WEST JORDAN    SUNNY     70  36  28 SE14G21   29.90F

$$

UTZ012>022-026-027-180100-

SOUTHERN UTAH

CITY           SKY/WX    TMP DP  RH WIND       PRES   REMARKS
BRYCE CANYON   PTSUNNY   60  25  26 SE14      30.08F
CEDAR CITY     SUNNY     72  18  13 SW20G28   29.95F
MILFORD        SUNNY     77  20  12 S20       29.89F
MOAB/CYNLANDS  SUNNY     70  19  14 SE6       29.95F
PRICE          SUNNY     65  17  15 E12G24    29.99F
ST GEORGE      CLEAR     84  27  12 W12G17    29.84F

$$

REGIONAL REPORTS     COLORADO/ARIZONA

CITY           SKY/WX    TMP DP  RH WIND       PRES   REMARKS
CRAIG, CO      PTSUNNY   60  22  23 W16       30.01F
GRAND JUNCTION SUNNY     65  20  17 VRB5      29.99F
RIFLE          SUNNY     64  19  17 W17G30    30.01F
MONTROSE       SUNNY     66  18  15 MISG      30.04F
CORTEZ         SUNNY     66  20  17 NW7       30.07F
PAGE, AZ       SUNNY     79  26  14 NE10      29.92F
GRAND CANYON   MOSUNNY   71  17  12 SW7       30.07S
KINGMAN        SUNNY     81  13   7 SW25      29.90S
FLAGSTAFF      SUNNY     67  18  15 S14G22    30.10S

$$

REGIONAL REPORTS    NEVADA/IDAHO/WYOMING

CITY           SKY/WX    TMP DP  RH WIND       PRES   REMARKS
LAS VEGAS, NV  PTSUNNY   90  20   7 S21G30    29.72F
ELY            SUNNY     70  23  17 S12G24    29.92F
ELKO           MOSUNNY   75  26  16 W10G18    29.78F
POCATELLO, ID  MOSUNNY   67  24  19 S14G22    29.86F
BURLEY         SUNNY     72  29  20 S13       29.77F
EVANSTON, WY   SUNNY     59  23  25 W15G25    30.00S
ROCK SPRINGS   SUNNY     61  18  18 W17G24    29.98

$$



USA.gov is the U.S. government's official web portal to all federal, state and local government web resources and services.